www.pogodaiklimat.ru

Погода и климат >> Архив погоды >> Индонезия >> Меулабох


ПОГОДА в Меулабохе

  • Прогноз погоды в Меулабохе
  • Монитор погоды в Меулабохе

АРХИВ ПОГОДЫ в Меулабохе

Время (UTC), дата Ветер
(напр.,м/с)
 
Видим.   Явления Облачность Т
(С)
Тd
(С)
f
(%)
Тe
(С)
Тes
(С)
Комфортность P
(гПа)
Po
(гПа)
Тmin
(С)
Tmax
(С)
R
(мм)
R24
(мм)
S
(см)
21 11.06 СВ 1 6000 м 9/6 500 м
[Cu med, cong Ac As Ci fib]
+24.2 +23.8 98 +33 +33 очень
душно
1008.7 1008.1
00 12.06 СВ 1 6000 м гроза без осадков {морось} 8/5 500 м
[Cb cap Ac As Ci fib]
+24.0 +23.7 98 +33 +33 очень
душно
1009.1 1008.5 +23.8 10
03 12.06 ЮВ 1 10 км в посл. час гроза 6/4 420 м
[Cb cap Ac As Ci sp]
+30.0 +26.4 81 +46 +53 опасность
перегрева
1011.4 1010.8
06 12.06 ЮЗ 3 10 км 6/4 500 м
[Cu med, cong Ac As Ci sp]
+31.8 +28.2 81 +53 +61 опасность
перегрева
1009.3 1008.7
09 12.06 Ю 1 9000 м 6/4 500 м
[Sc Ac trans Ci fib]
+31.2 +26.6 77 +48 +53 опасность
перегрева
1007.9 1007.3
12 12.06 ЮВ 1 7000 м 9/5 480 м
[Sc Ac As Ci sp]
+29.7 +26.2 82 +45 +45 опасность
перегрева
1009.2 1008.6 +33.3
15 12.06 СВ 1 6000 м 9/5 500 м
[Sc Ac As Ci sp]
+26.7 +24.9 90 +38 +38 очень
душно
1011.2 1010.6
18 12.06 С 1 6000 м 9/5 500 м
[Sc Ac As Ci sp]
+25.6 +24.8 95 +36 +36 очень
душно
1010.3 1009.7
21 12.06 С 1 6000 м 9/5 500 м
[Sc Ac As Ci sp]
+25.1 +23.9 93 +34 +34 очень
душно
1009.2 1008.6
00 13.06 СВ 1 7000 м 8/5 540 м
[Sc Ac und Ci sp]
+25.0 +23.1 89 +33 +33 очень
душно
1010.2 1009.6 +24.0
03 13.06 В 1 10 км 5/3 600 м
[Cu med, cong Ac trans Ci fib]
+28.2 +25.2 84 +41 +50 опасность
перегрева
1011.5 1010.9
06 13.06 ЮЗ 4 10 км 5/3 600 м
[Cu med, cong Ac As Ci fib]
+31.8 +27.4 78 +51 +60 опасность
перегрева
1009.4 1008.9
09 13.06 ЮЗ 2 10 км 5/4 570 м
[Sc Ac trans Ci fib]
+32.3 +26.0 69 +48 +53 опасность
перегрева
1007.7 1007.1
12 13.06 Ю 1 7000 м 9/5 500 м
[Sc Ac As Ci sp]
+29.5 +26.0 81 +44 +44 опасность
перегрева
1009.1 1008.5 +33.6
15 13.06 штиль 0 6000 м 9/5 500 м
[Sc Ac As Ci sp]
+28.2 +26.3 89 +43 +43 опасность
перегрева
1012.3 1011.7
18 13.06 СВ 1 5000 м гроза, ливневой дождь 10/8
[Cb cap Ac As]
+24.6 +23.5 94 +33 +33 очень
душно
1011.3 1010.7 0.4
21 13.06 СВ 1 4000 м дымка {гроза, дождь} 9/4 540 м
[Sc Ac und Cs]
+24.0 +22.7 92 +31 +31 очень
душно
1008.8 1008.2 0.9
00 14.06 С 1 5000 м дымка {гроза, дождь} 5/1 600 м
[Sc Ac trans Ci]
+24.4 +23.8 96 +33 +33 очень
душно
1009.3 1008.7 +23.9 16
03 14.06 В 1 12 км 5/3 600 м
[Cu med, cong Ac trans Ci fib]
+30.0 +25.7 78 +45 +53 опасность
перегрева
1011.1 1010.5
06 14.06 З 3 12 км 5/3 600 м
[Sc Ac trans Ci fib]
+31.8 +25.5 69 +46 +57 опасность
перегрева
1010.8 1010.3
09 14.06 З 3 12 км 4/1 630 м
[Cu hum Ac trans Ci fib]
+31.7 +26.3 73 +48 +53 опасность
перегрева
1008.9 1008.3
12 14.06 СЗ 2 8000 м 9/6 500 м
[Cb cap Ac As Ci fib]
+30.1 +27.3 85 +48 +48 опасность
перегрева
1010.0 1009.4 +33.0
15 14.06 СВ 2 7000 м 9/6 500 м
[Cb cap Ac As Ci fib]
+25.6 +24.8 95 +36 +36 очень
душно
1013.4 1012.8
18 14.06 С 1 8000 м 8/5 500 м
[Sc Ac As Ci fib]
+25.1 +24.3 95 +35 +35 очень
душно
1012.0 1011.4
21 14.06 СВ 1 7000 м 8/4 570 м
[Sc Ac trans Ci fib]
+24.3 +23.0 92 +32 +32 очень
душно
1009.7 1009.1
00 15.06 С 1 7000 м 8/4 570 м
[Sc Ac trans Ci fib]
+24.2 +22.9 92 +32 +32 очень
душно
1009.8 1009.2 +24.0
03 15.06 СВ 2 10 км 8/4 500 м
[Sc Ac und Ci sp]
+29.8 +24.1 72 +42 +47 опасность
перегрева
1012.3 1011.7
06 15.06 ЮВ 2 10 км 8/4 500 м
[Sc Ac und Ci sp]
+31.6 +25.3 69 +46 +54 опасность
перегрева
1011.0 1010.4
09 15.06 З 2 10 км 6/3 540 м
[Sc Ac As Ci sp]
+31.2 +27.1 79 +49 +54 опасность
перегрева
1008.5 1007.9
12 15.06 ЮЗ 1 8000 м 6/4 540 м
[Sc Ac As Ci sp]
+29.8 +25.8 79 +44 +44 опасность
перегрева
1009.1 1008.4 +32.2
15 15.06 СВ 1 8000 м 6/3 570 м
[Cu med, cong Ac trans Ci sp]
+26.3 +25.2 94 +38 +38 очень
душно
1010.7 1010.1
18 15.06 С 1 6000 м 9/3 570 м
[Cu med, cong Ac lent Ci ing]
+24.3 +22.9 92 +32 +32 очень
душно
1010.7 1010.1
21 15.06 В 1 7000 м 8/5 500 м
[Sc Ac As Ci fib]
+24.4 +23.8 96 +33 +33 очень
душно
1009.0 1008.4
00 16.06 СВ 2 8000 м 8/4 540 м
[Sc Ac trans Ci fib]
+23.6 +22.8 95 +31 +31 очень
душно
1010.5 1009.9 +23.3
03 16.06 СВ 2 9000 м 5/3 540 м
[Cu Sc Ac cast Ci fib]
+29.0 +26.1 84 +44 +52 опасность
перегрева
1012.4 1011.8
06 16.06 Ю 2 10 км 5/3 570 м
[Cu Sc Ac und Ci fib]
+31.4 +27.7 81 +51 +63 опасность
перегрева
1011.3 1010.7
09 16.06 ЮЗ 3 10 км 5/3 660 м
[Sc Ac As Ci fib]
+31.9 +27.0 75 +50 +54 опасность
перегрева
1009.0 1008.4
12 16.06 З 2 8000 м 9/5 540 м
[Sc Ac As Ci sp]
+28.9 +24.4 77 +41 +41 опасность
перегрева
1009.8 1009.2 +32.8
15 16.06 С 1 6000 м 8/3 500 м
[Sc As trans Ci fib]
+26.1 +24.5 91 +37 +37 очень
душно
1011.4 1010.8
18 16.06 штиль 0 6000 м 9/5 500 м
[Sc Ac und Ci sp]
+25.3 +24.2 94 +35 +35 очень
душно
1011.1 1010.5
21 16.06 С 1 5000 м дымка 9/3 570 м
[Cu med, cong Ac As Ci sp]
+24.0 +23.3 96 +32 +32 очень
душно
1009.4 1008.8
00 17.06 С 1 6000 м 9/1 660 м
[Cu med, cong As trans Ci sp]
+23.9 +23.2 96 +32 +32 очень
душно
1010.7 1010.1 +23.5
03 17.06 СВ 1 8000 м 9/5 540 м
[Sc Ac As Ci sp]
+30.3 +24.5 71 +43 +47 опасность
перегрева
1012.2 1011.6
06 17.06 ЮЗ 2 10 км 5/3 600 м
[Sc Ac trans Ci fib]
+31.9 +26.3 72 +48 +61 опасность
перегрева
1010.3 1009.7
09 17.06 ЮЗ 5 7000 м 9/5 480 м
[Cb cap Ac As Ci sp]
+30.7 +24.6 70 +43 +45 опасность
перегрева
1009.5 1008.9
12 17.06 С 1 7000 м 9/5 480 м
[Cb cap Ac As Ci sp]
+26.7 +22.2 76 +35 +35 очень
душно
1011.1 1010.5 +33.2
15 17.06 штиль 0 7000 м 9/4 570 м
[Sc Ac und Ci sp]
+25.4 +22.7 85 +33 +33 очень
душно
1012.1 1011.5
18 17.06 С 1 6000 м 9/4 570 м
[Sc Ac und Cs]
+24.5 +23.2 92 +33 +33 очень
душно
1012.1 1011.5
21 17.06 С 1 6000 м 9/4 540 м
[Sc Ac und Ci sp]
+23.8 +23.0 95 +32 +32 очень
душно
1010.6 1010.0
00 18.06 С 1 7000 м 8/4 600 м
[Sc As trans Ci fib]
+23.6 +22.3 92 +31 +31 очень
душно
1010.4 1009.8 +23.3
03 18.06 СВ 1 10 км 8/4 570 м
[Sc Ac trans Ci fib]
+31.9 +23.7 62 +43 +49 опасность
перегрева
1011.2 1010.6
06 18.06 З 1 10 км 8/4 570 м
[Sc Ac trans Ci fib]
+31.9 +23.4 61 +43 +52 опасность
перегрева
1011.2 1010.6
09 18.06 ЮЗ 1 8000 м 9/3 630 м
[Sc Ac und Ci sp]
+31.5 +24.0 65 +43 +47 опасность
перегрева
1007.6 1007.0
12 18.06 С 1 9000 м 9/3 660 м
[Sc Ac und Cs]
+29.8 +27.2 86 +47 +47 опасность
перегрева
1009.1 1008.4 +32.9
15 18.06 З 1 7000 м 9/5 570 м
[Sc Ac As Ci sp]
+27.0 +25.2 90 +39 +39 очень
душно
1010.7 1010.1

 

Местоположение метеостанции Меулабох (Индонезия): широта 4.25 долгота 96.12 высота над уровнем моря 90 м.

В архиве по умолчанию представлена погода в Меулабохе за последнюю неделю. Архивные данные за месяц целиком и за предыдущие месяцы, начиная с января 2011 года, Вы можете получить, выбрав интересующий диапазон дат из раскрывающегося списка и нажав кнопку "Ввод!".


*Определитесь, кто Вы:
робот инопланетянин человек

Внимание! Время в таблицах - всемирное. Для получения местного времени необходимо прибавить поправку, которая равна 7 ч.

Смотрите также архив погоды в соседних городах и на ближайших метеорологических станциях:

Погода в Банда-Ачехе (Индонезия) (161 км)
Погода в Лхоксёмаве (Индонезия) (162 км)
Погода в Сабанге (Индонезия) (201 км)
Погода в Белаване (Индонезия) (291 км)
Погода в Медан Полония (Индонезия) (294 км)
Погода в Гунунгситоли (Индонезия) (349 км)
Погода в Сиболге (Индонезия) (429 км)
Погода в Лангкави (Малайзия) (462 км)
Погода в Пенанге (Малайзия) (474 км)
Погода на Пхукете (Таиланд) (476 км)

Пояснения к столбцам:

Ветер - указаны скорость ветра в м/с - средняя за 10 мин, порывы в срок и между сроками (в фигурных скобках) и направление, откуда дует ветер: С - северный, СВ - северо-восточный, В - восточный, ЮВ - юго-восточный, Ю - южный, ЮЗ - юго-западный, З - западный, СЗ - северо-западный.
Видимость - горизонтальная дальность видимости в метрах или километрах. При видимости от 1 до 10 км при отсутствии осадков обычно наблюдается дымка, при ухудшении видимости до 1 км и менее - туман. В сухую погоду видимость может ухудшаться дымом, пылью или мглою.
Явления - указаны атмосферные явления, наблюдавшиеся в срок или в последний час перед сроком; фигурными скобками обозначены явления, наблюдавшиеся между сроками (за 1-3 часа до срока); квадратными скобками обозначены град или гололедные отложения с указанием их диаметра в мм.
Облачность - указаны через наклонную черту общая и нижняя облачность в баллах и высота нижней границы облаков в метрах; квадратными скобками обозначены формы облаков: Ci - перистые, Cs - перисто-слоистые, Cc - перисто-кучевые, Ac - высококучевые, As - высокослоистые, Sc - слоисто-кучевые, Ns - слоисто-дождевые, Cu - кучевые, Cb - кучево-дождевые. Подробнее классификацию облаков см. в Атласе облаков (PDF).
T - Температура воздуха - температура, измеренная на высоте 2 м над землей.
Td - Температура точки росы - температура, при понижении до которой содержащийся в воздухе водяной пар достигнет насыщения.
f - Относительная влажность воздуха - влажноcть воздуха, измеренная на высоте 2 м над землей.
Te - Эффективная температура - температура, которую ощущает одетый по сезону человек в тени. Характеристика душности погоды. При расчете учитывается влияние влажности воздуха и скорости ветра на теплоощущения человека.
Tes - Эффективная температура на солнце - температура, которую ощущает человек, с поправкой на солнечный нагрев. Характеристика знойности погоды. Зависит от высоты солнца над горизонтом, облачности и скорости ветра. Ночью, в пасмурную погоду, а также при ветре 12 м/с и более поправка равна нулю.
P - Атмосферное давление - приведенное к уровню моря атмосферное давление.
Po - Атмосферное давление - измеренное на уровне метеостанции атмосферное давление.
Tmin - Минимальная температура - минимум температуры воздуха на высоте 2 м над землей.
Tmax - Максимальная температура - максимум температуры воздуха на высоте 2 м над землей.
R - Количество осадков - Количество выпавших осадков за период времени, мм. При наведении курсора мыши на число - период времени, за который выпало указанное количество осадков.
R24 - Количество осадков - Количество выпавших осадков за 24 часа, мм.
S - Снежный покров - Высота снежного покрова, см. При наведении курсора мыши на число - состояние снежного покрова и степень покрытия местности в баллах.